Wind_Speed
4 5 5 7 8 10 11 13 15 16 18 20 22 23 25 26 27 28 29 30 32 33 36 38 41 44 45 46 45 45 44 43 41 39 36 33 31 28 27 26 26 27 28
6 7 8 10 12 14 16 18 20 22 23 25 26 28 29 31 32 33 34 35 36 36 37 38 39 41 43 46 48 49 49 48 47 45 43 40 37 34 32 30 29 29 29
9 11 13 15 17 19 21 23 24 26 28 29 30 32 33 34 35 37 38 39 40 41 42 43 43 44 45 45 47 49 52 53 52 51 50 47 44 40 37 35 32 31 32
14 16 17 19 21 23 25 26 28 29 30 31 33 34 35 37 38 39 41 42 44 45 46 47 48 49 49 50 50 50 51 53 55 56 56 54 51 47 44 41 38 35 34
17 19 21 22 24 26 27 29 30 32 33 35 36 38 40 41 43 44 45 47 48 49 50 51 52 52 53 54 55 55 55 54 55 58 59 59 58 55 51 47 44 41 38
20 22 24 25 27 28 30 32 34 36 38 40 42 44 46 47 48 50 51 53 54 55 56 57 58 58 58 58 59 60 60 59 59 59 60 62 62 61 59 55 50 47 43
22 24 26 28 30 32 35 37 39 42 44 46 49 51 53 54 56 57 59 61 62 63 64 65 65 65 65 65 65 65 65 64 64 64 64 64 65 65 64 62 58 53 49
25 27 29 32 34 37 39 42 44 47 50 52 55 57 60 62 64 66 67 69 71 72 73 73 73 73 73 73 73 72 71 70 70 69 69 69 68 67 67 67 65 60 56
27 30 32 35 38 40 43 45 48 51 54 56 59 61 64 66 69 72 74 76 78 80 80 81 81 81 80 80 79 79 78 77 76 75 74 74 73 71 70 70 69 67 63
30 33 36 39 42 44 47 49 52 54 57 60 63 66 68 71 74 78 81 83 86 87 88 89 90 89 89 87 86 85 84 84 83 82 80 79 79 77 75 73 72 71 69
34 38 41 44 47 49 51 54 56 59 62 65 69 72 75 78 82 85 88 91 93 94 96 97 97 97 96 94 93 91 90 89 89 88 86 85 84 83 81 78 75 74 73
38 42 45 48 49 51 54 57 60 63 67 70 73 76 80 83 87 91 94 97 99 100 101 101 101 100 99 98 97 96 96 95 94 93 92 91 90 88 87 84 80 77 76
42 46 48 49 51 53 56 59 63 66 70 74 77 80 84 88 93 97 100 101 102 102 101 100 99 99 98 97 96 96 96 97 97 98 97 97 96 94 92 90 87 82 79
45 48 49 51 53 55 59 62 66 70 73 77 80 85 90 94 99 102 103 104 102 100 98 96 94 92 91 90 90 90 91 93 96 98 100 101 102 100 98 96 93 89 84
48 49 50 52 55 59 62 66 69 73 76 80 84 90 95 99 102 103 102 99 97 94 91 89 87 85 84 83 83 84 84 86 89 93 97 102 105 105 104 102 99 95 91
48 49 51 54 58 61 65 69 72 75 79 83 89 94 99 101 101 99 95 91 87 85 83 82 81 80 78 77 77 77 78 79 82 86 92 97 103 107 109 107 105 101 97
48 50 52 56 60 64 67 70 74 77 82 87 92 97 99 99 96 91 87 84 82 81 80 78 76 74 72 71 70 70 71 72 75 80 86 92 98 105 110 111 110 107 103
48 51 54 58 62 66 69 72 75 80 85 90 94 97 96 93 88 84 82 81 79 77 74 72 69 67 66 65 65 65 65 65 68 73 79 86 93 101 107 113 114 111 108
49 52 56 60 64 68 70 74 78 83 87 92 95 94 91 86 82 80 80 78 76 73 71 70 68 66 64 63 63 63 63 62 63 66 72 81 88 96 103 110 115 115 113
50 54 58 62 66 68 71 75 80 85 89 92 93 90 85 81 79 78 77 75 73 72 72 72 71 70 69 67 65 64 63 62 62 63 65 73 83 91 99 107 114 117 117
52 56 60 63 66 69 72 76 81 85 89 91 90 85 81 78 77 77 75 73 73 74 74 73 72 71 71 72 71 68 66 65 64 64 63 65 74 86 95 103 112 117 119
54 57 61 64 67 70 73 77 82 86 89 89 85 81 78 77 77 76 74 74 74 75 73 70 69 67 67 69 72 73 71 69 70 67 64 64 67 76 89 99 108 115 120
55 58 62 65 67 70 74 78 83 87 88 86 81 77 76 76 76 75 74 74 76 74 69 65 61 58 55 56 63 69 74 75 73 69 68 65 65 68 79 93 103 112 118
56 59 63 65 68 71 75 79 84 86 86 83 78 75 75 76 75 74 74 75 74 70 64 58 54 50 46 43 46 54 64 72 75 73 71 68 65 65 70 83 97 108 116
56 60 63 66 69 72 75 80 84 85 83 80 76 74 75 75 74 73 74 74 71 65 57 52 49 44 39 33 31 36 47 60 69 73 71 70 67 65 65 73 88 101 112
57 60 64 66 69 72 76 80 83 84 81 77 74 73 74 73 72 72 73 72 67 58 51 46 43 39 35 29 22 20 29 43 57 67 69 68 68 66 64 66 78 93 105
Wind_Direction
1 345 332 324 319 316 312 307 303 300 297 295 293 291 289 288 287 285 284 282 280 277 274 271 268 265 262 260 259 260 260 260 260 262 262 260 256 252 247 242 239 236 234
352 339 331 324 318 312 307 303 300 298 296 294 293 291 289 288 287 285 284 283 282 280 279 277 275 272 269 264 260 258 257 257 257 258 259 258 256 253 249 244 240 237 235
334 327 322 317 313 308 305 302 300 298 296 295 294 292 291 290 288 286 285 283 282 280 278 277 276 274 273 270 267 262 258 256 255 255 255 255 255 253 250 246 241 238 236
329 323 317 313 309 306 304 302 301 299 298 297 295 294 293 291 290 288 286 285 283 281 279 277 276 274 272 271 269 267 264 259 256 254 253 253 253 252 250 247 243 238 235
324 319 315 312 311 309 307 306 305 303 302 300 298 296 295 293 292 290 288 287 285 283 282 280 277 275 273 271 268 266 265 263 260 256 253 251 250 250 249 247 245 240 236
322 319 317 316 314 313 311 310 309 307 305 302 300 298 297 295 293 291 289 288 287 285 283 281 279 277 275 272 270 267 264 262 260 258 255 252 250 248 247 246 244 242 238
323 321 319 317 317 316 314 313 311 309 307 305 303 301 299 297 295 293 291 290 288 287 285 282 280 278 276 274 271 269 266 262 259 257 255 253 251 248 247 245 244 242 240
323 321 320 319 319 317 315 313 312 311 309 307 305 303 301 299 297 295 294 292 290 288 286 283 281 278 275 273 271 269 267 263 260 256 253 252 251 248 246 245 243 241 240
322 321 321 320 318 316 314 312 311 310 308 307 305 303 301 300 298 296 294 292 290 288 286 283 281 278 276 273 270 267 265 263 260 257 253 250 249 248 246 244 242 240 239
323 323 322 320 317 315 314 313 311 310 308 307 306 304 302 300 298 297 295 293 291 289 287 285 282 280 277 274 270 266 263 260 258 256 253 249 247 245 244 243 241 240 238
324 324 322 320 318 316 315 313 312 311 310 308 307 306 304 302 300 298 297 295 293 291 289 287 285 282 279 276 272 267 263 259 256 253 251 249 245 243 241 240 240 239 237
324 323 321 320 318 317 315 314 313 312 311 309 308 306 304 302 301 299 298 296 295 293 292 290 287 284 281 278 274 269 265 260 256 252 248 246 244 241 239 238 237 236 236
323 322 321 320 318 317 316 315 313 312 311 309 308 306 305 304 302 301 299 297 296 295 293 291 288 285 282 278 274 270 266 261 256 251 247 243 241 239 237 235 234 233 233
322 322 321 320 318 317 316 315 314 313 311 310 309 308 307 305 303 301 300 298 297 295 293 290 287 284 280 277 273 269 265 261 256 251 246 242 238 236 234 232 231 230 230
323 322 321 319 318 317 316 315 314 314 313 312 311 310 308 306 304 302 301 299 297 295 292 289 286 283 279 275 272 267 263 258 254 250 244 240 236 233 232 230 229 228 227
323 321 319 318 317 317 316 316 316 316 315 314 313 311 309 307 305 305 303 301 299 296 293 290 286 283 279 275 271 267 262 257 252 247 243 238 235 232 229 228 226 225 224
321 320 318 317 317 317 317 318 318 317 316 316 314 311 310 309 309 308 306 304 301 299 295 292 287 283 278 273 269 265 261 257 251 246 242 237 233 230 227 225 224 223 222
320 318 318 318 318 319 319 319 319 319 318 317 314 313 313 313 312 311 309 307 305 302 298 293 288 282 277 271 266 261 258 255 251 246 240 236 232 229 226 223 222 221 220
319 319 319 319 320 321 321 322 322 321 320 318 316 316 317 317 316 314 313 311 308 304 300 295 289 283 276 269 263 258 253 251 249 246 241 235 231 228 225 222 220 219 219
320 320 321 321 322 323 323 324 324 323 321 320 319 320 320 320 319 318 316 313 310 307 302 296 290 283 276 268 262 255 250 247 245 244 241 237 231 228 224 221 218 217 217
322 322 323 323 324 324 325 326 325 324 322 322 322 323 323 323 322 321 319 316 314 310 305 300 293 285 277 268 261 254 248 244 242 241 240 238 234 228 224 221 218 216 215
324 324 324 325 325 326 327 328 327 326 325 325 325 326 326 326 325 324 322 321 318 315 310 305 299 291 281 271 261 252 246 241 239 237 237 237 236 231 225 221 218 215 214
326 326 326 327 327 328 329 329 329 328 327 328 328 329 329 329 328 328 327 325 323 320 317 314 309 302 291 278 265 253 244 238 237 235 235 235 235 233 228 222 218 215 214
328 328 328 329 330 331 331 331 331 330 330 330 331 332 332 332 332 331 331 330 328 326 324 323 321 316 306 291 273 257 245 237 233 231 233 233 233 233 230 225 219 216 214
330 330 330 331 332 333 333 333 333 332 332 333 334 335 335 335 335 335 335 334 333 331 330 332 333 331 326 312 289 263 246 236 231 228 229 231 231 232 231 227 221 217 214
333 332 333 333 334 335 335 335 335 335 335 335 336 337 338 338 338 339 340 339 337 336 336 338 342 346 347 341 322 281 249 235 229 225 225 227 229 230 231 228 223 219 215
Height
5879 5878 5877 5876 5875 5874 5873 5871 5869 5868 5866 5864 5862 5860 5859 5857 5856 5854 5852 5851 5850 5849 5848 5848 5847 5847 5847 5848 5848 5848 5848 5849 5850 5851 5852 5854 5855 5856 5858 5860 5861 5862 5863
5879 5878 5876 5875 5874 5872 5870 5868 5866 5864 5862 5860 5858 5856 5854 5852 5850 5848 5846 5845 5844 5843 5841 5840 5840 5839 5839 5840 5840 5841 5841 5842 5843 5844 5845 5846 5848 5850 5852 5854 5856 5857 5859
5878 5877 5875 5873 5871 5869 5866 5864 5862 5859 5857 5855 5852 5850 5848 5845 5843 5841 5839 5837 5836 5835 5834 5832 5831 5831 5831 5831 5831 5832 5833 5834 5835 5836 5836 5838 5840 5842 5845 5847 5849 5851 5853
5877 5875 5872 5870 5868 5865 5863 5860 5857 5855 5852 5849 5846 5843 5840 5838 5835 5833 5830 5828 5826 5825 5824 5823 5822 5821 5821 5821 5821 5822 5823 5825 5826 5826 5827 5829 5831 5834 5836 5839 5841 5844 5846
5874 5872 5869 5867 5864 5861 5858 5855 5852 5849 5845 5842 5839 5835 5832 5829 5826 5823 5820 5818 5816 5814 5812 5811 5810 5810 5810 5810 5810 5811 5812 5814 5816 5816 5818 5819 5821 5823 5826 5829 5832 5836 5839
5870 5868 5865 5862 5859 5856 5853 5849 5846 5842 5838 5834 5831 5827 5823 5819 5816 5812 5809 5806 5803 5801 5799 5798 5797 5796 5796 5796 5797 5798 5799 5802 5803 5804 5806 5808 5810 5813 5816 5819 5823 5826 5830
5867 5864 5860 5857 5854 5850 5846 5842 5838 5834 5830 5825 5821 5816 5811 5807 5803 5799 5795 5791 5788 5785 5783 5782 5780 5780 5779 5780 5781 5782 5784 5786 5788 5791 5793 5795 5798 5801 5804 5808 5812 5816 5820
5863 5859 5856 5852 5848 5844 5839 5835 5830 5825 5820 5815 5810 5804 5799 5793 5788 5783 5778 5774 5770 5767 5764 5762 5760 5760 5760 5761 5762 5763 5766 5768 5771 5774 5777 5780 5784 5788 5791 5795 5800 5805 5809
5859 5855 5851 5847 5842 5838 5833 5827 5822 5816 5810 5804 5798 5792 5785 5779 5772 5766 5760 5755 5750 5746 5742 5739 5737 5736 5736 5737 5739 5742 5745 5747 5750 5755 5759 5763 5768 5773 5777 5781 5786 5792 5797
5854 5849 5845 5840 5835 5829 5824 5818 5812 5805 5799 5792 5785 5778 5771 5763 5755 5748 5740 5733 5726 5720 5715 5711 5709 5708 5709 5709 5712 5715 5720 5723 5727 5733 5738 5743 5750 5755 5760 5766 5771 5778 5784
5848 5843 5838 5832 5826 5820 5813 5807 5800 5793 5786 5778 5770 5761 5753 5744 5735 5726 5716 5708 5699 5692 5685 5680 5677 5675 5675 5677 5680 5684 5689 5695 5702 5707 5714 5721 5728 5735 5742 5749 5755 5762 5769
5843 5838 5831 5825 5818 5811 5804 5796 5789 5781 5773 5764 5755 5745 5735 5725 5714 5703 5692 5681 5672 5663 5655 5648 5643 5640 5640 5641 5644 5648 5654 5661 5670 5678 5687 5695 5703 5712 5721 5729 5737 5745 5752
5836 5830 5824 5816 5809 5802 5795 5787 5779 5770 5760 5750 5739 5728 5717 5705 5692 5679 5666 5654 5643 5633 5625 5617 5611 5606 5604 5605 5607 5610 5616 5623 5633 5644 5656 5666 5675 5686 5697 5707 5717 5725 5734
5829 5823 5815 5808 5801 5793 5785 5777 5767 5757 5746 5735 5723 5710 5697 5683 5669 5654 5639 5626 5615 5605 5595 5588 5581 5576 5573 5571 5572 5575 5579 5585 5594 5606 5620 5632 5645 5658 5670 5682 5694 5704 5715
5822 5815 5807 5800 5792 5784 5775 5765 5755 5743 5731 5718 5705 5691 5676 5660 5644 5629 5614 5600 5588 5577 5567 5559 5552 5547 5543 5541 5541 5542 5546 5550 5558 5567 5581 5596 5611 5626 5640 5654 5668 5681 5693
5814 5807 5800 5792 5783 5774 5764 5753 5741 5729 5715 5701 5686 5670 5652 5635 5618 5602 5587 5574 5561 5550 5540 5532 5524 5519 5515 5513 5512 5512 5515 5519 5526 5533 5545 5560 5575 5591 5608 5624 5640 5655 5670
5808 5800 5792 5783 5774 5763 5752 5740 5727 5714 5699 5684 5667 5648 5629 5610 5593 5577 5562 5548 5536 5525 5514 5505 5497 5492 5488 5486 5485 5485 5487 5490 5496 5503 5512 5526 5541 5556 5574 5592 5610 5628 5645
5801 5793 5784 5774 5763 5751 5739 5726 5712 5698 5682 5664 5645 5625 5605 5587 5570 5554 5539 5525 5512 5500 5489 5479 5472 5466 5463 5460 5460 5461 5462 5465 5469 5475 5484 5495 5508 5523 5540 5559 5580 5600 5619
5793 5784 5774 5764 5752 5739 5726 5712 5697 5681 5663 5643 5623 5602 5583 5566 5550 5534 5518 5504 5490 5477 5465 5456 5448 5442 5438 5436 5436 5437 5439 5443 5447 5451 5458 5467 5479 5492 5508 5528 5549 5571 5591
5785 5775 5765 5753 5741 5728 5714 5698 5682 5664 5644 5623 5602 5582 5564 5548 5532 5515 5499 5484 5469 5456 5443 5431 5422 5415 5411 5409 5410 5413 5417 5421 5425 5429 5435 5442 5452 5463 5479 5498 5519 5540 5562
5777 5766 5755 5743 5730 5716 5702 5686 5668 5648 5627 5606 5584 5565 5547 5531 5514 5498 5481 5465 5449 5434 5419 5405 5393 5385 5380 5378 5381 5386 5393 5399 5403 5408 5414 5421 5428 5438 5453 5471 5490 5511 5534
5768 5757 5745 5733 5719 5705 5689 5672 5654 5633 5612 5590 5569 5550 5532 5515 5498 5481 5463 5447 5429 5412 5395 5378 5365 5354 5348 5345 5346 5354 5365 5375 5378 5387 5395 5401 5407 5417 5430 5445 5463 5484 5506
5760 5748 5736 5723 5709 5693 5677 5659 5639 5617 5595 5575 5555 5537 5519 5501 5483 5465 5447 5428 5409 5389 5371 5355 5339 5326 5318 5314 5313 5319 5332 5345 5354 5368 5374 5382 5389 5398 5408 5422 5439 5458 5480
5751 5739 5726 5712 5698 5682 5665 5646 5625 5604 5583 5562 5543 5525 5507 5488 5470 5451 5433 5413 5392 5371 5353 5337 5323 5309 5298 5291 5288 5291 5300 5314 5330 5345 5354 5363 5373 5381 5390 5402 5417 5435 5456
5743 5730 5717 5702 5687 5671 5653 5633 5612 5591 5570 5550 5532 5514 5496 5477 5458 5439 5420 5399 5378 5359 5342 5327 5313 5299 5287 5277 5272 5272 5278 5290 5305 5322 5335 5345 5355 5365 5374 5385 5398 5414 5433
5734 5721 5707 5692 5676 5660 5641 5622 5601 5580 5559 5540 5522 5505 5487 5468 5449 5429 5409 5388 5368 5349 5335 5321 5308 5295 5283 5273 5266 5264 5267 5275 5286 5301 5316 5327 5339 5350 5360 5370 5382 5395 5413